Regional Weather Roundup
Issued by NWS Goodland, KS

Home | Current Version | Previous Version | Graphics & Text | Print | Product List | Glossary On
Versions: 1 2 3 4 5 6 7 8 9 10 11 12 13 14 15 16 17 18 19 20 21 22 23 24 25 26 27 28 29 30 31 32 33 34 35 36 37 38 39 40 41 42 43 44 45 46 47 48 49 50
000
ASUS43 KGLD 200508
RWRGLD

GOODLAND FORECAST AREA HOURLY WEATHER ROUNDUP
NATIONAL WEATHER SERVICE GOODLAND KS
1000 PM MST FRI DEC 19 2014

...OFFICIAL OBSERVATIONS...

CITY           SKY/WX    TMP DP  RH WIND       PRES   REMARKS
GOODLAND KS    PTCLDY    33  28  81 SW12      30.05F
HILL CITY KS   CLEAR     38  30  73 SW12      30.06F
IMPERIAL NEB   CLEAR     30  21  69 W12       30.03S
MCCOOK NEB     CLEAR     27  22  81 W9        30.04S
AKRON CO       MOCLDY    31  23  72 S12       30.01F
BURLINGTON CO  MOCLDY    30  25  81 SW9       30.04F
LIMON CO       CLOUDY    21  18  88 N3        30.04F
$$

...UNOFFICIAL OBSERVATIONS...

CITY           SKY/WX    TMP DP  RH WIND       PRES   REMARKS
COLBY KS       CLEAR     30  30 100 SW5       30.06S
GOVE KS          N/A     29  32 100 MISG        N/A
NORTON KS      CLEAR     28  23  80 SW7       30.03S
SHARON SPRINGS   N/A     29  27  90 W7          N/A
TRIBUNE KS     CLEAR     28  28 100 SW7       30.09R
KIT CARSON CO    N/A     25  22  88 MISG        N/A
$$



USA.gov is the U.S. government's official web portal to all federal, state and local government web resources and services.